[[{"header":{"parameterUnit":"m.s-1","parameterCategory":1,"la1":30.2991,"la2":30.254,"lo1":-89.0895,"lo2":-89.0444,"dy":0.0017,"dx":0.0017,"nx":28,"ny":28,"refTime":"2025-07-22T03:00:00:Z","depth":0,"parameterNumber":2,"parameterNumberName":"U-component_of_WINDS"},"data":[0,0,0,0,0,0,0,0,0,0,0,0,0,0,0,0,0,0,0,0,0,0,0,0,0,0,0,0,0,0,0,0,0,0,0,0,0,0,0,0,0,0,0,0,0,0,0,0,0,0,0,0,0,0,0,0,0,0,3.828,3.8282,0,3.843,3.8432,3.8433,3.8422,3.842,3.8418,3.8416,3.8569,3.8574,3.8581,0,0,0,0,0,0,0,0,0,0,0,0,0,3.7983,3.7988,3.828,3.8282,3.8284,3.843,3.8432,3.8434,3.8423,3.842,3.8417,3.8415,3.8566,3.8574,3.8581,0,0,0,0,0,0,0,0,0,0,0,0,0,3.812,3.799,3.828,3.8296,3.8299,3.8429,3.8432,3.8434,3.8423,3.842,3.8416,3.8413,3.8564,3.8573,3.8582,3.8707,0,0,3.861,3.8614,0,0,0,0,0,0,0,0,3.8113,3.8131,3.8291,3.8295,3.8298,3.8404,3.8383,3.8526,3.8424,3.8376,3.8415,3.8412,3.8516,3.8529,3.8565,3.8714,3.872,3.8611,3.8617,3.8621,3.8623,0,0,0,0,0,0,0,3.8103,3.8125,3.8339,3.8294,3.8298,3.8295,3.8311,3.841,3.8463,3.838,3.8379,3.8397,3.8518,3.8556,3.8568,3.8722,3.8611,3.8619,3.8625,3.8629,3.898,3.8983,0,0,0,0,0,0,3.809,3.8117,3.8335,3.8344,3.8195,3.8303,3.8321,3.8373,3.8462,3.8472,3.84,3.8396,3.8542,3.8558,3.8574,3.8724,3.8621,3.8629,3.8635,3.8976,3.8981,3.8985,0,0,0,0,0,0,3.8084,3.811,3.8329,3.823,3.8258,3.8312,3.8371,3.8378,3.8416,3.8477,3.8487,3.8429,3.854,3.8561,3.8673,3.8729,3.8634,3.8642,3.8971,3.8977,3.8983,3.9025,0,0,0,0,0,0,3.8075,3.8107,3.8155,3.8232,3.8263,3.8426,3.8375,3.8384,3.8432,3.8429,3.8507,3.8517,3.8539,3.866,3.8683,3.874,3.8649,3.8967,3.8974,3.8981,3.9019,3.9032,3.9043,0,0,0,0,0,3.8065,3.8161,3.8158,3.8184,3.8324,3.8429,3.8447,3.847,3.8437,3.8485,3.8524,3.8515,3.872,3.8671,3.8697,3.8758,3.8963,3.8972,3.898,3.9014,3.9029,3.9042,0,0,0,0,0,0,3.809,3.8172,3.8168,3.8293,3.8354,3.8427,3.8488,3.8486,3.8558,3.8551,3.8577,3.8595,3.8708,3.8745,3.8689,3.8882,3.8837,3.8851,3.8854,3.8869,3.888,3.8868,3.8657,0,0,0,0,0,3.811,3.8188,3.8256,3.8359,3.839,3.8434,3.8481,3.8493,3.8558,3.8583,3.8631,3.8693,3.8772,3.8823,3.8899,3.9025,3.9041,3.908,3.9092,3.9101,3.9112,3.918,3.9198,3.9013,3.9013,3.9012,0,0,3.8152,3.8206,3.8254,3.8365,3.8414,3.8494,3.8456,3.8543,3.8602,3.8597,3.8705,3.8742,3.8814,3.8934,3.8989,3.8968,3.9167,3.9112,3.9119,3.9125,3.9191,3.9208,3.9224,3.9018,3.9017,3.9016,0,0,3.8269,3.8319,3.8409,3.8459,3.8534,3.8563,3.8585,3.8659,3.8683,3.8793,3.879,3.8862,3.8997,3.9047,3.9091,3.9228,3.9221,3.9252,3.9312,3.9379,3.9393,3.9406,3.9453,3.947,3.9264,3.9264,3.9264,0,3.8311,3.8432,3.8456,3.8544,3.8592,3.8592,3.8683,3.8731,3.8826,3.8859,3.8835,3.9004,3.9052,3.9183,3.9216,3.9253,3.9277,3.9242,3.9389,3.9403,3.9415,3.946,3.9478,3.9267,3.9266,3.9266,3.9266,0,3.8479,3.8563,3.8628,3.872,3.8776,3.8865,3.8903,3.8957,3.8965,3.8996,3.9108,3.9166,3.9253,3.9286,3.9295,3.9418,3.9402,3.9384,3.9338,3.9435,3.9478,3.9496,3.9271,3.927,3.9269,3.9268,0,0,3.8614,3.8719,3.8742,3.8784,3.8867,3.8932,3.9021,3.9107,3.9151,3.9218,3.9292,3.9407,3.939,3.9439,3.9454,3.9513,3.9616,3.9487,3.9489,3.9507,3.9753,3.9765,3.9785,3.9613,3.9616,3.9619,3.9746,0,3.8737,3.8895,3.892,3.9058,3.9135,3.9137,3.9214,3.9273,3.9306,3.9376,3.9411,3.9491,3.9464,3.9493,3.9552,3.9591,3.9665,3.9582,3.9681,3.9684,3.966,3.9807,3.982,3.9937,3.9764,3.9766,3.9769,0,3.8902,3.8972,3.9118,3.9191,3.9224,3.9293,3.9373,3.944,3.9508,3.9527,3.9582,3.959,3.9682,3.9635,3.9761,3.9704,3.9746,3.9772,3.9777,3.9785,3.973,3.9817,3.9976,3.9992,3.9795,3.9793,3.9791,0,3.8982,3.9114,3.9218,3.9254,3.9342,3.939,3.9429,3.9493,3.9542,3.9613,3.9645,3.9725,3.9768,3.983,3.9859,3.9822,3.9983,3.9938,4.0,3.9999,4.0032,4.0029,4.0197,4.0063,4.0063,4.0063,4.0062,0,3.9116,3.9204,3.9256,3.9319,3.9419,3.9447,3.9544,3.9582,3.9639,3.9709,3.9717,3.9783,3.9819,3.989,3.9914,4.0014,4.0034,4.0051,4.0056,4.0049,4.0047,4.0075,4.0067,4.0067,4.0066,4.0065,4.0065,0,3.9221,3.9259,3.9372,3.9447,3.9467,3.9537,3.96,3.9662,3.9694,3.9783,3.9806,3.9857,3.9941,3.9977,4.0081,4.0097,4.0211,4.0211,4.0188,4.0189,4.0248,4.0241,4.0438,4.0465,4.0316,4.0317,4.0318,0,3.9302,3.937,3.9452,3.95,3.954,3.9617,3.9668,3.9699,3.9752,3.9833,3.9885,3.997,4.0039,4.0174,4.0219,4.0299,4.0299,4.0363,4.0311,4.0302,4.0297,4.0292,4.0298,4.0371,4.0373,4.0374,4.0375,0,3.9441,3.9457,3.953,3.961,3.967,3.9735,3.9798,3.9837,3.9877,3.9936,4.0022,4.0076,4.0182,4.0266,4.0348,4.0387,4.0388,4.0392,4.041,4.0402,4.0385,4.0392,4.0211,4.0386,4.0385,4.0384,4.0384,4.0383,3.9536,3.9596,3.9663,3.9743,3.9794,3.9853,3.9914,3.9955,4.0028,4.0116,4.0131,4.0223,4.0288,4.0399,4.0442,4.0514,4.0498,4.0524,4.0531,4.0536,4.0539,4.0376,4.0529,4.0529,4.0529,4.0528,4.0528,0,3.9673,3.9716,3.9791,3.9879,3.9942,3.9939,4.0008,4.0061,4.0142,4.0204,4.0272,4.0371,4.0452,4.0505,4.0587,4.0634,4.0636,4.0654,4.065,4.0658,4.0549,4.0524,4.0651,4.0651,4.0651,4.0651,4.0651,4.0651,3.9752,3.9853,3.9877,4.0003,4.0046,4.0136,4.0176,4.023,4.0279,4.039,4.0457,4.0492,4.0549,4.0636,4.071,4.0723,4.0752,4.0771,4.0783,4.0679,4.0666,4.0654,4.063,4.0777,4.0777,4.0885,4.0886,4.0887]},{"header":{"parameterUnit":"m.s-1","parameterCategory":1,"la1":30.2991,"la2":30.254,"lo1":-89.0895,"lo2":-89.0444,"dy":0.0017,"dx":0.0017,"nx":28,"ny":28,"refTime":"2025-07-22T03:00:00:Z","depth":0,"parameterNumber":3,"parameterNumberName":"V-component_of_WINDS"},"data":[0,0,0,0,0,0,0,0,0,0,0,0,0,0,0,0,0,0,0,0,0,0,0,0,0,0,0,0,0,0,0,0,0,0,0,0,0,0,0,0,0,0,0,0,0,0,0,0,0,0,0,0,0,0,0,0,0,0,3.6571,3.6573,0,3.6715,3.6717,3.6718,3.6731,3.6729,3.6728,3.6726,3.6865,3.687,3.6875,0,0,0,0,0,0,0,0,0,0,0,0,0,3.63,3.6305,3.6571,3.6573,3.6575,3.6715,3.6717,3.6719,3.6731,3.6729,3.6727,3.6726,3.6864,3.687,3.6876,0,0,0,0,0,0,0,0,0,0,0,0,0,3.6428,3.6306,3.6571,3.6598,3.6602,3.6714,3.6717,3.6719,3.6731,3.6729,3.6727,3.6725,3.6862,3.6869,3.6877,3.697,0,0,3.69,3.6904,0,0,0,0,0,0,0,0,3.6421,3.6438,3.6592,3.6596,3.6601,3.6703,3.6672,3.6803,3.6732,3.6682,3.6726,3.6724,3.6813,3.6824,3.6856,3.6976,3.6982,3.6901,3.6906,3.6909,3.6911,0,0,0,0,0,0,0,3.6412,3.6432,3.6628,3.6594,3.66,3.66,3.6616,3.6697,3.6758,3.6686,3.6687,3.6705,3.6814,3.6848,3.6859,3.6984,3.6901,3.6908,3.6912,3.6915,3.7187,3.7189,0,0,0,0,0,0,3.6399,3.6424,3.6623,3.6632,3.6504,3.6607,3.6625,3.6672,3.6757,3.6768,3.6706,3.6705,3.6836,3.685,3.6864,3.6978,3.6909,3.6916,3.692,3.7184,3.7187,3.719,0,0,0,0,0,0,3.6393,3.6416,3.6617,3.6529,3.6554,3.6614,3.6667,3.6676,3.671,3.6773,3.6783,3.6731,3.6835,3.6853,3.6944,3.6983,3.6919,3.6926,3.7181,3.7185,3.7189,3.7207,0,0,0,0,0,0,3.6385,3.6414,3.6452,3.653,3.6559,3.6697,3.667,3.6681,3.6724,3.6724,3.6798,3.6808,3.6835,3.6932,3.6951,3.6993,3.6932,3.7178,3.7183,3.7187,3.7203,3.7211,3.7218,0,0,0,0,0,3.6375,3.645,3.6454,3.6478,3.6608,3.6699,3.6716,3.6748,3.6728,3.6765,3.6805,3.6806,3.6976,3.6941,3.6963,3.7007,3.7175,3.7181,3.7187,3.72,3.721,3.7218,0,0,0,0,0,0,3.6373,3.646,3.6466,3.6568,3.6627,3.6701,3.6749,3.6757,3.682,3.6816,3.685,3.6867,3.6956,3.699,3.695,3.7101,3.7073,3.7083,3.7076,3.7085,3.7093,3.7082,3.6939,0,0,0,0,0,3.6384,3.6454,3.6526,3.6609,3.6638,3.6689,3.673,3.6749,3.681,3.6834,3.688,3.6937,3.7003,3.7046,3.711,3.7208,3.7224,3.7249,3.7256,3.7262,3.7271,3.7324,3.7336,3.7209,3.7209,3.7209,0,0,3.6408,3.6465,3.6506,3.661,3.6657,3.6726,3.6709,3.6783,3.6834,3.6844,3.6933,3.6969,3.7034,3.7129,3.7173,3.716,3.7309,3.727,3.7274,3.7279,3.7331,3.7343,3.7354,3.7213,3.7212,3.7212,0,0,3.6488,3.6538,3.6613,3.6662,3.6735,3.6768,3.6786,3.686,3.6885,3.6976,3.6985,3.7044,3.7158,3.7204,3.7242,3.7339,3.7342,3.7359,3.7397,3.7449,3.7459,3.7468,3.7502,3.7514,3.7367,3.7367,3.7367,0,3.6508,3.6615,3.665,3.6724,3.6769,3.6784,3.6859,3.6903,3.6992,3.7022,3.7007,3.715,3.7195,3.7301,3.7324,3.7355,3.7375,3.7351,3.7455,3.7465,3.7473,3.7506,3.7519,3.7369,3.7369,3.7368,3.7368,0,3.6636,3.6709,3.6761,3.685,3.69,3.6974,3.7018,3.7064,3.7079,3.7113,3.7203,3.7258,3.7334,3.736,3.7374,3.7467,3.7457,3.7449,3.7421,3.7487,3.7518,3.7531,3.7371,3.737,3.737,3.737,0,0,3.6717,3.6826,3.6844,3.6884,3.6966,3.7022,3.7096,3.7173,3.7211,3.7272,3.7333,3.7429,3.7422,3.7465,3.7485,3.753,3.7603,3.7516,3.7518,3.753,3.7708,3.7714,3.7728,3.7605,3.7608,3.761,3.7702,0,3.6805,3.6941,3.6974,3.7088,3.7156,3.7172,3.7236,3.7291,3.7325,3.7385,3.7421,3.7488,3.7474,3.75,3.7546,3.7585,3.7639,3.7578,3.7661,3.7663,3.7644,3.7745,3.7752,3.7836,3.7715,3.7717,3.7718,0,3.6927,3.6994,3.7115,3.7189,3.7218,3.7276,3.7349,3.7407,3.7469,3.749,3.7539,3.7554,3.7629,3.7598,3.77,3.7658,3.7694,3.7718,3.7722,3.773,3.7695,3.7756,3.7864,3.7876,3.7738,3.7736,3.7735,0,3.6974,3.7093,3.7182,3.7216,3.7304,3.7344,3.7381,3.7442,3.7486,3.7549,3.7577,3.7646,3.7684,3.7736,3.7769,3.7743,3.7868,3.784,3.7886,3.7885,3.7912,3.791,3.8027,3.7935,3.7935,3.7934,3.7934,0,3.7069,3.7143,3.7205,3.7259,3.7341,3.7378,3.7458,3.7495,3.7549,3.7609,3.7625,3.7681,3.7721,3.7781,3.7806,3.7887,3.7903,3.7921,3.7926,3.792,3.7917,3.7943,3.7938,3.7938,3.7937,3.7936,3.7936,0,3.7136,3.718,3.7278,3.7353,3.7374,3.7431,3.7495,3.7547,3.7581,3.7656,3.7676,3.7729,3.78,3.7838,3.7927,3.7944,3.8034,3.8036,3.8014,3.8016,3.806,3.8056,3.8198,3.8218,3.8113,3.8114,3.8115,0,3.7194,3.7251,3.7334,3.7377,3.7416,3.7485,3.753,3.7568,3.7614,3.769,3.7733,3.7806,3.7867,3.798,3.8024,3.8092,3.8095,3.8141,3.8105,3.8097,3.8096,3.8092,3.8098,3.8147,3.8148,3.8149,3.8149,0,3.7291,3.7311,3.7378,3.7452,3.7507,3.7567,3.7626,3.7659,3.7706,3.7756,3.7832,3.7879,3.7971,3.8043,3.8114,3.815,3.8157,3.816,3.8174,3.8168,3.8152,3.8161,3.8031,3.8157,3.8156,3.8155,3.8155,3.8155,3.7355,3.7407,3.7474,3.7548,3.7596,3.7651,3.7704,3.7746,3.781,3.789,3.7907,3.7986,3.8046,3.8143,3.8181,3.8242,3.8232,3.8253,3.8258,3.8262,3.8264,3.8143,3.8254,3.8254,3.8254,3.8254,3.8254,0,3.7454,3.7498,3.7566,3.7649,3.7706,3.7711,3.7776,3.7823,3.7894,3.795,3.8011,3.8096,3.8166,3.8216,3.8287,3.8325,3.833,3.8342,3.834,3.8348,3.8269,3.825,3.8337,3.8337,3.8337,3.8337,3.8337,3.8337,3.7512,3.76,3.7627,3.7739,3.7782,3.7862,3.7899,3.7949,3.7994,3.809,3.815,3.8183,3.8237,3.8311,3.8375,3.8387,3.8412,3.8424,3.8437,3.8362,3.8353,3.8345,3.8327,3.8429,3.843,3.8511,3.8512,3.8512]}]]